Location: *
(58.4167°N, 22.5000°E)
Time: 18:29:41
(UTC+00:00)

Cosmos 2227 - Pass Details

Date: 22 September 2019
Orbit: 833 x 863 km, 71.0° (Epoch: 22 October)

Event Time Altitude Azimuth Distance (km) Brightness Sun altitude
Exits shadow 21:00:14 73° 292° (WNW) 885 4.3 -29.2°
Maximum altitude 21:00:26 74° 311° (NW) 882 4.3 -29.2°
Drops below altitude 10° 21:06:09 10° 37° (NE) 2,485 7.0 -29.5°
Sets 21:08:38 0° 39° (NE) 3,428 7.7 -29.6°
